Regional Weather Roundup
Issued by NWS

Home | Current Version | Previous Version | Graphics & Text | Print | Product List | Glossary On
Versions: 1 2 3 4 5 6 7 8 9 10 11 12 13 14 15 16 17 18 19 20 21 22 23 24 25 26 27
000
ASUS45 KCYS 231110
RWRWY

WYOMING REGIONAL WEATHER ROUNDUP
NATIONAL WEATHER SERVICE CHEYENNE WY
400 AM MST TUE JAN 23 2018

NOTE:  "FAIR" INDICATES FEW OR NO CLOUDS BELOW 12,000 FEET
WITH NO SIGNIFICANT WEATHER AND/OR OBSTRUCTIONS TO VISIBILITY.

WYZ001-231200-
YELLOWSTONE NATIONAL PARK

CITY           SKY/WX    TMP DP  RH WIND       PRES   REMARKS
LK YELLOWSTONE   N/A     -6 -10  83 CALM      30.18R
W YELLOWSTONE  NOT AVBL

$$
WYZ002>013-054>058-071-098>099-231200-
NORTHERN WYOMING

CITY           SKY/WX    TMP DP  RH WIND       PRES   REMARKS
JACKSON        LGT SNOW  15  13  91 E3        30.21  FOG
CODY           FAIR      27  10  49 NW3       30.14R
GREYBULL       FAIR      10   7  87 SE5       30.19R WCI   2
WORLAND        FAIR      -1  -3  91 SW3       30.17R
SHERIDAN       FAIR      23  14  68 SW3       30.11R
BUFFALO        CLOUDY    27  11  51 SW5       30.10R WCI  22
GILLETTE       FAIR      20  15  81 W13       30.09S WCI   7
HULETT         FAIR      28  21  74 SW9       30.09R WCI  20
NEWCASTLE      FAIR      19  16  86 NW7       30.10S WCI  10

$$
WYZ014>020-022>026-101>103-231200-
CENTRAL WYOMING

CITY           SKY/WX    TMP DP  RH WIND       PRES   REMARKS
BIG PINEY      FAIR       2  -2  83 CALM      30.21R
PINEDALE       CLOUDY     5   1  85 CALM      30.21S
DUBOIS         CLOUDY    16  10  79 NW13      30.11S WCI   2
LANDER         FAIR      13   5  70 W6        30.14S WCI   4
RIVERTON       FAIR       4  -2  76 E9        30.15S WCI -10
CASPER         FAIR      17  11  77 SW14      30.13S WCI   3
DOUGLAS        FAIR      12  10  92 CALM      30.13S

$$
WYZ021-027>030-104>119-231200-
SOUTHERN WYOMING

CITY           SKY/WX    TMP DP  RH WIND       PRES   REMARKS
EVANSTON       CLOUDY    21  19  92 SW6       30.24R WCI  13
FORT BRIDGER   FAIR      20  17  89 W8        30.26S WCI  10
ROCK SPRINGS   FAIR      16  12  84 SW16      30.21S WCI   1
DIXON            N/A     19  14  80 W6        30.27R WCI  11
RAWLINS        MOCLDY    18  13  80 W23G30    30.15S WCI   0
SARATOGA       CLOUDY    19  14  79 W20G25    30.16F WCI   4
LARAMIE        CLOUDY    17  12  80 W15       30.10S WCI   2
CHEYENNE       FAIR      23  12  62 NW10      30.10S WCI  12
TORRINGTON     FAIR      23  15  71 NW10      30.13S WCI  12

$$




USA.gov is the U.S. government's official web portal to all federal, state and local government web resources and services.